Torna al catalogo

FENGYUN 1C DEB

AttivoPO
NORAD 37433·DEBRIS·🇨🇳 China

Lanciato May 10, 1999 da Taiyuan Satellite Launch Center

Loading…

Prossimi Passaggi (prossime 24 ore)

TLE

In scadenzaSource: Space-Track

Epoca: Sep 4, 2026, 07:42 UTC

1 37433U 99025EHB 26247.32102672  .00003782  00000-0  17940-2 0  9992
2 37433  98.0897  65.7986 0206536 168.3235 192.2836 14.09453095274738

Traccia FENGYUN 1C DEB in tempo reale con AllMySat

Download on the App Store